Location: Devargunta
(16.7631°N, 80.9077°E)
Time: 10:28:30
(UTC+00:00)

COSMO-SKYMED 1 - Pass Details

Date: 19 January 2021
Orbit: 621 x 623 km, 97.9° (Epoch: 28 February)

Event Time Altitude Azimuth Distance (km) Brightness Sun altitude
Rises 12:53:16 0° 358° (N) 2,894 5.8 -7.1°
Reaches altitude 10° 12:55:34 10° 350° (N) 1,987 5.1 -7.6°
Maximum altitude 12:59:31 36° 284° (WNW) 992 4.2 -8.5°
Drops below altitude 10° 13:03:28 10° 218° (SW) 1,982 6.1 -9.4°
Sets 13:05:47 0° 209° (SSW) 2,887 6.8 -9.9°
